sat.trackr.live / text

‹ back to catalog

STARLINK-36803

NORAD 67893 · 2026-035Q

PAYLOAD ACTIVE UNKNOWN

§ Identity

Operator
Country
US
Launch date
2026-02-21
Launch site
AFWTR
Launch vehicle
Mass (kg)
RCS (m²)

Purposes: comms

External: N2YO · Heavens-Above · Gunter

§ Orbital elements

Epoch: 2026-09-19T13:40:45.185952Z

Period
93.91 min
Inclination
97.2842°
Eccentricity
0.0001524
Mean motion
15.33439999 rev/d
Perigee alt
464.5 km
Apogee alt
466.6 km
Semi-major
6,843.7 km
B*
3.2197e-4
RAAN
194.4809°
Arg perigee
93.1993°
Mean anomaly
266.9424°
Rev number
3,370

§ Raw data

STARLINK-368031 67893U 26035Q   26262.56996743  .00010332  00000+0  32197-3 0  99992 67893  97.2842 194.4809 0001524  93.1993 266.9424 15.33439999 33709

JSON: /api/v1/satellites/67893 · /tle

For live sub-satellite position, see the globe view (requires WebGL).

§ Visibility from observer

Set your observer location to see the next 7 days of passes ≥ 10°. The values pass through the URL so the page stays shareable.

No JS? Fill the form by hand. The geolocation button needs JavaScript.